EZY35MF EGKK-LEMD

Flight info

Callsign EZY35MF
Flight time 1h 54m
Altitude 31000
Route IMVUR N63 SAM M195 MARUK/N0425F330 N621 LELNA DCT NOVAN DCT DELOG N864 NONTU
Aircraft A21N/M-SDE2E3FGHIJ1RWXYZ/LB1G1

Departure

Time 2026-05-06 16:13
Airport London Gatwick Airport (EGKK)

Arrival

Time 2026-05-06 18:08
Airport Adolfo Suárez Madrid–Barajas Airport (LEMD)
Time Latitude Longitude Altitude Speed Heading
2026-05-06 15:27 51.15645 -0.17856 0 ft 0 kts 168°
2026-05-06 15:57 51.15657 -0.17860 210 ft 4 kts 169°
2026-05-06 15:57 51.15681 -0.17866 210 ft 4 kts 177°
2026-05-06 15:58 51.15704 -0.17862 210 ft 4 kts 206°
2026-05-06 15:58 51.15706 -0.17861 210 ft 4 kts 211°
2026-05-06 15:58 51.15716 -0.17844 210 ft 0 kts 257°
2026-05-06 16:02 51.15716 -0.17847 210 ft 1 kts 257°
2026-05-06 16:02 51.15714 -0.17858 210 ft 2 kts 257°
2026-05-06 16:03 51.15708 -0.17900 210 ft 4 kts 258°
2026-05-06 16:03 51.15700 -0.17961 214 ft 7 kts 257°
2026-05-06 16:03 51.15689 -0.18046 210 ft 9 kts 258°
2026-05-06 16:03 51.15678 -0.18117 218 ft 6 kts 253°
2026-05-06 16:04 51.15668 -0.18196 216 ft 8 kts 257°
2026-05-06 16:04 51.15654 -0.18297 210 ft 10 kts 257°
2026-05-06 16:04 51.15637 -0.18422 210 ft 13 kts 257°
2026-05-06 16:04 51.15619 -0.18559 218 ft 13 kts 257°
2026-05-06 16:05 51.15597 -0.18713 220 ft 15 kts 257°
2026-05-06 16:05 51.15574 -0.18803 216 ft 10 kts 226°
2026-05-06 16:05 51.15500 -0.18816 210 ft 12 kts 166°
2026-05-06 16:05 51.15410 -0.18784 210 ft 14 kts 169°
2026-05-06 16:06 51.15307 -0.18748 213 ft 16 kts 163°
2026-05-06 16:06 51.15205 -0.18711 210 ft 13 kts 167°
2026-05-06 16:06 51.15136 -0.18746 212 ft 12 kts 237°
2026-05-06 16:06 51.15112 -0.18881 210 ft 14 kts 256°
2026-05-06 16:07 51.15091 -0.19034 210 ft 15 kts 258°
2026-05-06 16:07 51.15068 -0.19202 210 ft 16 kts 257°
2026-05-06 16:07 51.15042 -0.19386 218 ft 18 kts 257°
2026-05-06 16:07 51.15014 -0.19584 216 ft 19 kts 258°
2026-05-06 16:08 51.14986 -0.19793 215 ft 20 kts 257°
2026-05-06 16:08 51.14955 -0.20015 210 ft 21 kts 258°
2026-05-06 16:08 51.14932 -0.20179 213 ft 14 kts 257°
2026-05-06 16:08 51.14911 -0.20333 212 ft 15 kts 257°
2026-05-06 16:09 51.14894 -0.20454 214 ft 11 kts 257°
2026-05-06 16:09 51.14876 -0.20583 210 ft 13 kts 256°
2026-05-06 16:09 51.14811 -0.20672 209 ft 13 kts 207°
2026-05-06 16:09 51.14761 -0.20750 213 ft 11 kts 250°
2026-05-06 16:10 51.14744 -0.20881 212 ft 13 kts 258°
2026-05-06 16:10 51.14724 -0.21029 218 ft 14 kts 257°
2026-05-06 16:10 51.14701 -0.21192 210 ft 16 kts 257°
2026-05-06 16:10 51.14672 -0.21318 210 ft 6 kts 219°
2026-05-06 16:11 51.14625 -0.21333 217 ft 8 kts 170°
2026-05-06 16:11 51.14616 -0.21330 211 ft 0 kts 167°
2026-05-06 16:11 51.14613 -0.21329 211 ft 2 kts 167°
2026-05-06 16:11 51.14594 -0.21321 218 ft 5 kts 162°
2026-05-06 16:12 51.14558 -0.21296 211 ft 8 kts 147°
2026-05-06 16:12 51.14520 -0.21214 214 ft 11 kts 103°
2026-05-06 16:12 51.14531 -0.21083 212 ft 15 kts 78°
2026-05-06 16:12 51.14606 -0.20545 215 ft 84 kts 77°
2026-05-06 16:13 51.14775 -0.19332 214 ft 139 kts 77°
2026-05-06 16:13 51.15012 -0.17636 396 ft 161 kts 76°
2026-05-06 16:13 51.15246 -0.15875 916 ft 168 kts 76°
2026-05-06 16:13 51.15505 -0.13985 1367 ft 183 kts 76°
2026-05-06 16:14 51.15784 -0.11934 1911 ft 200 kts 76°
2026-05-06 16:14 51.16094 -0.09667 2475 ft 220 kts 76°
2026-05-06 16:14 51.16564 -0.07348 2898 ft 222 kts 58°
2026-05-06 16:14 51.17622 -0.05620 3010 ft 220 kts 28°
2026-05-06 16:15 51.19085 -0.05011 3018 ft 220 kts 359°
2026-05-06 16:15 51.20579 -0.05446 3024 ft 220 kts 342°
2026-05-06 16:15 51.21914 -0.06663 3004 ft 223 kts 317°
2026-05-06 16:15 51.22731 -0.08767 3012 ft 251 kts 288°
2026-05-06 16:16 51.22759 -0.11658 3619 ft 266 kts 262°
2026-05-06 16:16 51.22536 -0.13398 4232 ft 266 kts 259°
2026-05-06 16:16 51.22138 -0.16291 5181 ft 267 kts 259°
2026-05-06 16:16 51.21769 -0.19100 6039 ft 270 kts 260°
2026-05-06 16:17 51.21388 -0.22147 6950 ft 272 kts 261°
2026-05-06 16:17 51.21027 -0.25116 7818 ft 275 kts 261°
2026-05-06 16:17 51.20671 -0.28112 8651 ft 279 kts 261°
2026-05-06 16:17 51.20309 -0.31179 9452 ft 281 kts 261°
2026-05-06 16:18 51.19946 -0.34274 10234 ft 284 kts 261°
2026-05-06 16:18 51.19559 -0.37371 10991 ft 288 kts 259°
2026-05-06 16:18 51.19143 -0.40522 11679 ft 297 kts 259°
2026-05-06 16:18 51.18709 -0.43811 12350 ft 306 kts 259°
2026-05-06 16:19 51.18266 -0.47167 12997 ft 314 kts 259°
2026-05-06 16:19 51.17811 -0.50625 13648 ft 322 kts 259°
2026-05-06 16:19 51.17239 -0.54108 14352 ft 328 kts 251°
2026-05-06 16:19 51.16380 -0.57488 15107 ft 331 kts 248°
2026-05-06 16:20 51.15463 -0.60889 15854 ft 334 kts 248°
2026-05-06 16:20 51.14541 -0.64295 16581 ft 337 kts 248°
2026-05-06 16:20 51.13611 -0.67749 17281 ft 340 kts 248°
2026-05-06 16:20 51.12677 -0.71231 17964 ft 343 kts 248°
2026-05-06 16:21 51.11736 -0.74738 18621 ft 347 kts 248°
2026-05-06 16:21 51.10785 -0.78286 19266 ft 350 kts 248°
2026-05-06 16:21 51.10098 -0.80846 19719 ft 352 kts 248°
2026-05-06 16:21 51.09134 -0.84437 20349 ft 355 kts 248°
2026-05-06 16:22 51.08159 -0.88062 20940 ft 358 kts 248°
2026-05-06 16:22 51.07175 -0.91713 21504 ft 361 kts 248°
2026-05-06 16:22 51.06195 -0.95340 22071 ft 363 kts 248°
2026-05-06 16:22 51.05183 -0.99082 22617 ft 366 kts 248°
2026-05-06 16:23 51.04183 -1.02775 23126 ft 369 kts 248°
2026-05-06 16:23 51.03161 -1.06538 23649 ft 372 kts 248°
2026-05-06 16:23 51.02119 -1.10368 24170 ft 375 kts 248°
2026-05-06 16:23 51.01081 -1.14184 24667 ft 377 kts 247°
2026-05-06 16:24 51.00036 -1.18016 25146 ft 380 kts 247°
2026-05-06 16:24 50.98997 -1.21825 25604 ft 382 kts 247°
2026-05-06 16:24 50.97937 -1.25706 26063 ft 385 kts 247°
2026-05-06 16:24 50.96862 -1.29614 26498 ft 387 kts 246°
2026-05-06 16:25 50.95562 -1.33334 26894 ft 391 kts 235°
2026-05-06 16:25 50.93677 -1.36507 27276 ft 396 kts 220°
2026-05-06 16:25 50.91402 -1.39025 27651 ft 400 kts 214°
2026-05-06 16:25 50.89050 -1.41399 28016 ft 403 kts 214°
2026-05-06 16:26 50.86685 -1.43788 28368 ft 405 kts 214°
2026-05-06 16:26 50.84307 -1.46219 28717 ft 407 kts 214°
2026-05-06 16:26 50.81932 -1.48669 29044 ft 409 kts 215°
2026-05-06 16:26 50.79545 -1.51139 29373 ft 411 kts 215°
2026-05-06 16:27 50.77143 -1.53626 29699 ft 414 kts 214°
2026-05-06 16:27 50.74729 -1.56122 30020 ft 416 kts 214°
2026-05-06 16:27 50.72305 -1.58627 30319 ft 418 kts 214°
2026-05-06 16:27 50.69802 -1.61011 30603 ft 422 kts 208°
2026-05-06 16:28 50.67136 -1.62946 30880 ft 424 kts 205°
2026-05-06 16:28 50.64415 -1.64814 31168 ft 427 kts 205°
2026-05-06 16:28 50.61687 -1.66690 31438 ft 429 kts 205°
2026-05-06 16:28 50.58950 -1.68592 31695 ft 431 kts 205°
2026-05-06 16:29 50.56219 -1.70505 31949 ft 433 kts 205°
2026-05-06 16:29 50.53706 -1.72268 32191 ft 434 kts 205°
2026-05-06 16:29 50.50978 -1.74179 32453 ft 436 kts 205°
2026-05-06 16:29 50.48171 -1.76145 32754 ft 436 kts 205°
2026-05-06 16:30 50.45436 -1.78056 33051 ft 436 kts 205°
2026-05-06 16:30 50.43563 -1.79361 33258 ft 436 kts 205°
2026-05-06 16:30 50.39862 -1.81943 33644 ft 435 kts 205°
2026-05-06 16:30 50.37131 -1.83846 33910 ft 435 kts 205°
2026-05-06 16:31 50.34368 -1.85768 34178 ft 435 kts 205°
2026-05-06 16:31 50.31619 -1.87675 34424 ft 434 kts 205°
2026-05-06 16:31 50.28843 -1.89599 34658 ft 434 kts 205°
2026-05-06 16:31 50.26079 -1.91512 34886 ft 434 kts 205°
2026-05-06 16:32 50.23309 -1.93429 35024 ft 437 kts 205°
2026-05-06 16:32 50.20519 -1.95357 35032 ft 439 kts 205°
2026-05-06 16:32 50.14955 -1.99197 34999 ft 439 kts 205°
2026-05-06 16:33 50.09365 -2.03040 34992 ft 440 kts 205°
2026-05-06 16:34 50.00965 -2.08805 34988 ft 440 kts 205°
2026-05-06 16:34 49.95227 -2.12121 35001 ft 440 kts 198°
2026-05-06 16:35 49.89366 -2.14842 34986 ft 440 kts 198°
2026-05-06 16:35 49.83490 -2.17569 34989 ft 440 kts 198°
2026-05-06 16:36 49.77629 -2.20301 34986 ft 440 kts 198°
2026-05-06 16:36 49.72755 -2.22562 34987 ft 440 kts 198°
2026-05-06 16:37 49.66120 -2.25633 34974 ft 441 kts 198°
2026-05-06 16:37 49.60280 -2.28328 34986 ft 440 kts 198°
2026-05-06 16:38 49.54421 -2.31032 34983 ft 440 kts 198°
2026-05-06 16:38 49.48539 -2.33735 34982 ft 440 kts 198°
2026-05-06 16:39 49.42675 -2.36424 34991 ft 441 kts 198°
2026-05-06 16:39 49.36837 -2.39093 34987 ft 441 kts 198°
2026-05-06 16:40 49.30915 -2.41795 34988 ft 441 kts 198°
2026-05-06 16:40 49.25036 -2.44479 34986 ft 441 kts 198°
2026-05-06 16:41 49.19155 -2.47144 34990 ft 441 kts 198°
2026-05-06 16:41 49.13307 -2.49790 34990 ft 441 kts 198°
2026-05-06 16:42 49.07422 -2.52449 34987 ft 441 kts 198°
2026-05-06 16:42 49.01564 -2.55090 34986 ft 441 kts 198°
2026-05-06 16:43 48.95673 -2.57737 34992 ft 442 kts 198°
2026-05-06 16:43 48.89891 -2.60332 34978 ft 441 kts 198°
2026-05-06 16:44 48.84003 -2.62969 34983 ft 441 kts 198°
2026-05-06 16:44 48.78111 -2.65596 34987 ft 441 kts 198°
2026-05-06 16:45 48.72222 -2.68218 34986 ft 441 kts 198°
2026-05-06 16:45 48.66328 -2.70834 34988 ft 442 kts 197°
2026-05-06 16:46 48.60428 -2.73449 34988 ft 442 kts 197°
2026-05-06 16:46 48.54529 -2.76053 34988 ft 442 kts 197°
2026-05-06 16:47 48.48629 -2.78658 34986 ft 442 kts 197°
2026-05-06 16:47 48.42760 -2.81237 34994 ft 442 kts 197°
2026-05-06 16:48 48.36853 -2.83827 34993 ft 442 kts 197°
2026-05-06 16:48 48.30983 -2.86399 34992 ft 442 kts 197°
2026-05-06 16:49 48.26042 -2.88555 34991 ft 442 kts 197°
2026-05-06 16:49 48.20131 -2.91133 34985 ft 442 kts 197°
2026-05-06 16:50 48.14221 -2.93703 34981 ft 442 kts 197°
2026-05-06 16:50 48.08309 -2.96269 34980 ft 442 kts 197°
2026-05-06 16:51 48.02403 -2.98820 34971 ft 442 kts 197°
2026-05-06 16:51 47.96486 -3.01372 34967 ft 443 kts 197°
2026-05-06 16:52 47.90560 -3.03928 34969 ft 444 kts 197°
2026-05-06 16:52 47.84631 -3.06475 34967 ft 443 kts 197°
2026-05-06 16:53 47.78740 -3.08996 34962 ft 443 kts 197°
2026-05-06 16:53 47.72812 -3.11532 34968 ft 443 kts 197°
2026-05-06 16:54 47.66892 -3.14057 34962 ft 443 kts 197°
2026-05-06 16:54 47.60968 -3.16576 34960 ft 443 kts 197°
2026-05-06 16:55 47.55035 -3.19093 34961 ft 443 kts 197°
2026-05-06 16:55 47.49145 -3.21591 34959 ft 444 kts 197°
2026-05-06 16:56 47.43170 -3.24110 34957 ft 443 kts 197°
2026-05-06 16:56 47.37280 -3.26593 34960 ft 443 kts 197°
2026-05-06 16:57 47.31351 -3.29087 34956 ft 444 kts 197°
2026-05-06 16:57 47.25411 -3.31582 34962 ft 443 kts 197°
2026-05-06 16:58 47.19507 -3.34057 34963 ft 443 kts 197°
2026-05-06 16:58 47.13574 -3.36529 34969 ft 443 kts 197°
2026-05-06 16:59 47.07642 -3.38998 34970 ft 443 kts 197°
2026-05-06 16:59 47.01711 -3.41467 34970 ft 443 kts 197°
2026-05-06 17:00 46.95873 -3.43890 34965 ft 444 kts 197°
2026-05-06 17:00 46.89930 -3.46345 34971 ft 444 kts 197°
2026-05-06 17:01 46.83988 -3.48799 34969 ft 444 kts 197°
2026-05-06 17:01 46.78049 -3.51248 34971 ft 443 kts 197°
2026-05-06 17:02 46.72116 -3.53687 34977 ft 443 kts 197°
2026-05-06 17:02 46.66224 -3.56101 34979 ft 443 kts 197°
2026-05-06 17:03 46.60283 -3.58530 34980 ft 443 kts 197°
2026-05-06 17:03 46.54394 -3.60931 34978 ft 443 kts 197°
2026-05-06 17:04 46.48460 -3.63350 34978 ft 443 kts 197°
2026-05-06 17:04 46.42525 -3.65760 34979 ft 443 kts 197°
2026-05-06 17:05 46.36589 -3.68169 34980 ft 443 kts 197°
2026-05-06 17:05 46.30591 -3.70209 34977 ft 445 kts 188°
2026-05-06 17:06 46.24430 -3.71132 34980 ft 445 kts 187°
2026-05-06 17:06 46.18270 -3.72020 34977 ft 444 kts 187°
2026-05-06 17:07 46.12112 -3.72933 34985 ft 445 kts 187°
2026-05-06 17:07 46.05981 -3.73847 34993 ft 445 kts 187°
2026-05-06 17:08 45.99834 -3.74759 34989 ft 445 kts 187°
2026-05-06 17:08 45.93681 -3.75667 34997 ft 444 kts 187°
2026-05-06 17:09 45.87527 -3.76577 34990 ft 444 kts 187°
2026-05-06 17:09 45.81381 -3.77483 34992 ft 444 kts 187°
2026-05-06 17:10 45.75221 -3.78390 34999 ft 444 kts 187°
2026-05-06 17:10 45.69066 -3.79290 34999 ft 445 kts 187°
2026-05-06 17:11 45.62915 -3.80188 34998 ft 445 kts 187°
2026-05-06 17:11 45.56756 -3.81088 35005 ft 445 kts 187°
2026-05-06 17:12 45.50594 -3.81982 34994 ft 445 kts 187°
2026-05-06 17:12 45.44592 -3.82856 34994 ft 444 kts 187°
2026-05-06 17:13 45.38332 -3.83769 34995 ft 444 kts 187°
2026-05-06 17:13 45.32223 -3.84649 34998 ft 444 kts 187°
2026-05-06 17:14 45.26040 -3.85544 35004 ft 444 kts 187°
2026-05-06 17:14 45.19930 -3.86426 35010 ft 444 kts 187°
2026-05-06 17:15 45.13788 -3.87307 35007 ft 444 kts 188°
2026-05-06 17:15 45.07648 -3.88192 35004 ft 443 kts 188°
2026-05-06 17:16 45.01503 -3.89068 35012 ft 443 kts 188°
2026-05-06 17:16 44.95364 -3.89943 35011 ft 443 kts 188°
2026-05-06 17:17 44.89232 -3.90822 35008 ft 443 kts 188°
2026-05-06 17:17 44.83129 -3.91687 35004 ft 443 kts 188°
2026-05-06 17:18 44.76993 -3.92565 35000 ft 443 kts 188°
2026-05-06 17:18 44.70862 -3.93431 35016 ft 442 kts 188°
2026-05-06 17:19 44.64741 -3.94291 35018 ft 442 kts 188°
2026-05-06 17:19 44.58610 -3.95157 35017 ft 443 kts 188°
2026-05-06 17:20 44.52490 -3.96018 35013 ft 442 kts 188°
2026-05-06 17:20 44.46359 -3.96879 35019 ft 442 kts 188°
2026-05-06 17:21 44.40248 -3.97738 35019 ft 442 kts 188°
2026-05-06 17:21 44.34126 -3.98586 35020 ft 442 kts 187°
2026-05-06 17:22 44.27957 -3.98334 35022 ft 445 kts 178°
2026-05-06 17:22 44.21841 -3.97711 35024 ft 445 kts 178°
2026-05-06 17:23 44.15662 -3.97097 35014 ft 444 kts 178°
2026-05-06 17:23 44.09500 -3.96501 35015 ft 444 kts 178°
2026-05-06 17:24 44.03330 -3.95900 35018 ft 444 kts 178°
2026-05-06 17:24 43.97160 -3.95299 35023 ft 444 kts 178°
2026-05-06 17:25 43.90994 -3.94700 35020 ft 444 kts 178°
2026-05-06 17:25 43.84867 -3.94107 35023 ft 444 kts 179°
2026-05-06 17:26 43.78708 -3.93510 35008 ft 444 kts 178°
2026-05-06 17:26 43.72551 -3.92917 35011 ft 444 kts 178°
2026-05-06 17:27 43.66392 -3.92330 35017 ft 444 kts 179°
2026-05-06 17:27 43.60294 -3.91744 35021 ft 444 kts 179°
2026-05-06 17:28 43.54119 -3.91151 35022 ft 443 kts 179°
2026-05-06 17:28 43.47957 -3.90566 35014 ft 443 kts 179°
2026-05-06 17:29 43.41832 -3.90690 35024 ft 439 kts 189°
2026-05-06 17:29 43.35770 -3.91612 35020 ft 438 kts 189°
2026-05-06 17:30 43.29718 -3.92526 35016 ft 438 kts 189°
2026-05-06 17:30 43.23664 -3.93423 35017 ft 437 kts 189°
2026-05-06 17:31 43.17614 -3.94315 35015 ft 437 kts 189°
2026-05-06 17:31 43.11577 -3.95198 35026 ft 436 kts 189°
2026-05-06 17:32 43.05555 -3.96082 35014 ft 435 kts 189°
2026-05-06 17:32 42.99536 -3.96968 35011 ft 434 kts 190°
2026-05-06 17:33 42.93530 -3.97847 35005 ft 434 kts 189°
2026-05-06 17:33 42.87529 -3.98723 35000 ft 433 kts 190°
2026-05-06 17:34 42.81550 -3.99593 34997 ft 432 kts 190°
2026-05-06 17:34 42.75566 -4.00463 34987 ft 432 kts 190°
2026-05-06 17:35 42.69592 -4.01332 34981 ft 432 kts 190°
2026-05-06 17:35 42.64625 -4.02053 34979 ft 432 kts 190°
2026-05-06 17:36 42.55688 -4.03346 34980 ft 431 kts 190°
2026-05-06 17:36 42.49722 -4.04207 34971 ft 430 kts 190°
2026-05-06 17:37 42.43794 -4.05061 34969 ft 430 kts 190°
2026-05-06 17:37 42.37890 -4.05909 34964 ft 429 kts 190°
2026-05-06 17:38 42.31923 -4.06767 34962 ft 429 kts 190°
2026-05-06 17:38 42.25984 -4.07616 34956 ft 429 kts 190°
2026-05-06 17:39 42.20084 -4.08461 34956 ft 429 kts 190°
2026-05-06 17:39 42.14119 -4.09313 34958 ft 428 kts 191°
2026-05-06 17:40 42.08228 -4.10154 34954 ft 428 kts 191°
2026-05-06 17:40 42.02304 -4.10980 34944 ft 429 kts 189°
2026-05-06 17:41 41.96347 -4.11667 34943 ft 429 kts 189°
2026-05-06 17:41 41.90364 -4.12347 34945 ft 429 kts 189°
2026-05-06 17:42 41.84461 -4.13018 34952 ft 429 kts 189°
2026-05-06 17:42 41.78514 -4.13695 34941 ft 429 kts 189°
2026-05-06 17:43 41.72563 -4.14373 34940 ft 429 kts 189°
2026-05-06 17:43 41.66627 -4.15044 34945 ft 428 kts 189°
2026-05-06 17:44 41.60706 -4.15712 34943 ft 426 kts 189°
2026-05-06 17:44 41.57773 -4.16042 34794 ft 419 kts 189°
2026-05-06 17:44 41.54861 -4.16372 34492 ft 423 kts 189°
2026-05-06 17:45 41.51906 -4.16706 34232 ft 425 kts 189°
2026-05-06 17:45 41.48963 -4.17039 33989 ft 425 kts 189°
2026-05-06 17:45 41.46019 -4.17368 33736 ft 424 kts 189°
2026-05-06 17:45 41.43123 -4.17692 33239 ft 423 kts 189°
2026-05-06 17:46 41.40150 -4.18026 32630 ft 422 kts 189°
2026-05-06 17:46 41.37227 -4.18354 32044 ft 422 kts 189°
2026-05-06 17:46 41.34303 -4.18683 31466 ft 421 kts 189°
2026-05-06 17:46 41.31389 -4.19011 30901 ft 420 kts 189°
2026-05-06 17:47 41.28489 -4.19336 30353 ft 418 kts 189°
2026-05-06 17:47 41.25581 -4.19611 29806 ft 418 kts 187°
2026-05-06 17:47 41.22683 -4.19798 29237 ft 417 kts 187°
2026-05-06 17:47 41.19866 -4.19968 28687 ft 415 kts 186°
2026-05-06 17:48 41.16942 -4.20145 28114 ft 414 kts 186°
2026-05-06 17:48 41.14108 -4.20314 27576 ft 412 kts 186°
2026-05-06 17:48 41.11249 -4.20487 27031 ft 410 kts 186°
2026-05-06 17:48 41.08408 -4.20661 26466 ft 409 kts 186°
2026-05-06 17:49 41.05574 -4.20835 25911 ft 407 kts 186°
2026-05-06 17:49 41.02745 -4.21005 25370 ft 404 kts 185°
2026-05-06 17:49 40.99966 -4.21173 25017 ft 395 kts 185°
2026-05-06 17:49 40.97267 -4.21334 24912 ft 385 kts 185°
2026-05-06 17:50 40.94610 -4.21494 24901 ft 383 kts 186°
2026-05-06 17:50 40.92969 -4.21595 24910 ft 383 kts 186°
2026-05-06 17:50 40.90304 -4.21757 24926 ft 383 kts 186°
2026-05-06 17:50 40.87643 -4.21918 24941 ft 383 kts 186°
2026-05-06 17:51 40.84986 -4.22077 24914 ft 378 kts 186°
2026-05-06 17:51 40.82365 -4.22234 24179 ft 380 kts 186°
2026-05-06 17:51 40.79688 -4.22398 23216 ft 389 kts 185°
2026-05-06 17:51 40.76958 -4.22164 22350 ft 399 kts 171°
2026-05-06 17:52 40.74347 -4.20913 21753 ft 401 kts 154°
2026-05-06 17:52 40.72116 -4.18727 21150 ft 403 kts 139°
2026-05-06 17:52 40.70152 -4.16100 20550 ft 401 kts 136°
2026-05-06 17:52 40.68247 -4.13461 19945 ft 394 kts 136°
2026-05-06 17:53 40.66347 -4.10880 19081 ft 391 kts 136°
2026-05-06 17:53 40.64453 -4.08350 18227 ft 386 kts 136°
2026-05-06 17:53 40.62576 -4.05856 17429 ft 381 kts 136°
2026-05-06 17:53 40.60721 -4.03399 16658 ft 375 kts 136°
2026-05-06 17:54 40.58890 -4.00979 15858 ft 370 kts 136°
2026-05-06 17:54 40.57086 -3.98600 15111 ft 364 kts 136°
2026-05-06 17:54 40.55311 -3.96260 14324 ft 360 kts 136°
2026-05-06 17:54 40.53558 -3.93950 13582 ft 354 kts 136°
2026-05-06 17:55 40.51839 -3.91684 12832 ft 348 kts 136°
2026-05-06 17:55 40.50135 -3.89442 12128 ft 342 kts 136°
2026-05-06 17:55 40.48465 -3.87246 11429 ft 336 kts 135°
2026-05-06 17:55 40.46843 -3.85112 10971 ft 324 kts 135°
2026-05-06 17:56 40.45273 -3.83051 10583 ft 315 kts 135°
2026-05-06 17:56 40.43761 -3.81070 10265 ft 300 kts 135°
2026-05-06 17:56 40.42311 -3.79171 10050 ft 292 kts 136°
2026-05-06 17:56 40.40875 -3.77305 9914 ft 292 kts 136°
2026-05-06 17:57 40.39434 -3.75440 9803 ft 290 kts 135°
2026-05-06 17:57 40.38001 -3.73564 9538 ft 291 kts 135°
2026-05-06 17:57 40.36594 -3.71710 9240 ft 290 kts 135°
2026-05-06 17:57 40.35163 -3.69831 8919 ft 289 kts 135°
2026-05-06 17:58 40.33734 -3.67959 8595 ft 288 kts 135°
2026-05-06 17:58 40.32378 -3.66187 8294 ft 287 kts 135°
2026-05-06 17:58 40.30998 -3.64386 7988 ft 286 kts 135°
2026-05-06 17:58 40.29595 -3.62554 7683 ft 284 kts 135°
2026-05-06 17:59 40.28203 -3.60740 7398 ft 283 kts 135°
2026-05-06 17:59 40.26807 -3.58923 7090 ft 282 kts 135°
2026-05-06 17:59 40.25422 -3.57119 6774 ft 280 kts 135°
2026-05-06 17:59 40.24040 -3.55322 6457 ft 279 kts 135°
2026-05-06 18:00 40.22667 -3.53537 6145 ft 277 kts 135°
2026-05-06 18:00 40.21310 -3.51778 5988 ft 268 kts 135°
2026-05-06 18:00 40.20010 -3.50120 5967 ft 256 kts 136°
2026-05-06 18:00 40.18839 -3.48386 5970 ft 255 kts 121°
2026-05-06 18:01 40.18332 -3.46194 5981 ft 255 kts 90°
2026-05-06 18:01 40.18734 -3.44004 5733 ft 249 kts 59°
2026-05-06 18:01 40.19871 -3.42302 5326 ft 249 kts 41°
2026-05-06 18:01 40.21267 -3.40960 5036 ft 250 kts 29°
2026-05-06 18:02 40.22809 -3.39889 4990 ft 250 kts 27°
2026-05-06 18:02 40.24354 -3.38850 4988 ft 248 kts 24°
2026-05-06 18:02 40.25969 -3.38345 4981 ft 238 kts 359°
2026-05-06 18:02 40.27623 -3.38478 4999 ft 238 kts 354°
2026-05-06 18:03 40.29248 -3.38855 5000 ft 237 kts 342°
2026-05-06 18:03 40.30770 -3.39689 5005 ft 238 kts 330°
2026-05-06 18:03 40.32155 -3.40867 5006 ft 233 kts 320°
2026-05-06 18:03 40.33322 -3.42229 4986 ft 218 kts 323°
2026-05-06 18:04 40.34508 -3.43412 4832 ft 210 kts 322°
2026-05-06 18:04 40.35642 -3.44557 4621 ft 199 kts 321°
2026-05-06 18:04 40.36719 -3.45648 4403 ft 194 kts 322°
2026-05-06 18:04 40.37776 -3.46721 4133 ft 191 kts 322°
2026-05-06 18:05 40.38797 -3.47757 3884 ft 179 kts 322°
2026-05-06 18:05 40.39726 -3.48699 3640 ft 170 kts 322°
2026-05-06 18:05 40.40654 -3.49641 3431 ft 168 kts 322°
2026-05-06 18:05 40.41578 -3.50581 3178 ft 159 kts 322°
2026-05-06 18:06 40.42385 -3.51399 2928 ft 141 kts 322°
2026-05-06 18:06 40.43161 -3.52188 2746 ft 142 kts 321°
2026-05-06 18:06 40.43945 -3.52984 2565 ft 140 kts 323°
2026-05-06 18:06 40.44707 -3.53759 2385 ft 140 kts 323°
2026-05-06 18:07 40.45473 -3.54539 2200 ft 140 kts 322°
2026-05-06 18:07 40.46237 -3.55322 2022 ft 139 kts 322°
2026-05-06 18:07 40.46973 -3.56063 1979 ft 118 kts 323°
2026-05-06 18:07 40.47446 -3.56548 1998 ft 54 kts 313°
2026-05-06 18:08 40.47545 -3.56758 1999 ft 10 kts 298°
2026-05-06 18:08 40.47554 -3.56781 1999 ft 0 kts 296°
2026-05-06 18:09 40.47559 -3.56792 1999 ft 3 kts 295°
2026-05-06 18:09 40.47562 -3.56834 1999 ft 6 kts 254°
2026-05-06 18:09 40.47531 -3.56872 1998 ft 7 kts 199°
2026-05-06 18:09 40.47484 -3.56847 1996 ft 8 kts 140°
2026-05-06 18:10 40.47441 -3.56799 1995 ft 6 kts 141°
2026-05-06 18:10 40.47413 -3.56776 1994 ft 5 kts 162°
2026-05-06 18:10 40.47377 -3.56783 1993 ft 6 kts 208°
2026-05-06 18:10 40.47346 -3.56830 1993 ft 8 kts 231°
2026-05-06 18:11 40.47311 -3.56886 1993 ft 8 kts 224°
2026-05-06 18:11 40.47291 -3.56909 1992 ft 4 kts 227°
2026-05-06 18:11 40.47277 -3.56964 1993 ft 6 kts 260°
2026-05-06 18:11 40.47274 -3.56988 1993 ft 1 kts 263°
2026-05-06 18:12 40.47273 -3.57001 1993 ft 1 kts 262°
2026-05-06 18:12 40.47272 -3.57009 1993 ft 0 kts 262°
2026-05-06 18:12 40.47272 -3.57014 1993 ft 1 kts 262°
2026-05-06 18:12 40.47272 -3.57015 1993 ft 0 kts 262°